User: anonymous   Login
Location: Ciudad Delicias
(28.2170°N, 105.4670°W)
Time: 20:18:51
(UTC-07:00)
Language:

ETS-7 - Orbit

View from above orbital plane
View from above orbital plane
View from above satellite
View from above satellite

Ground track
Ground track

The orbit data is extracted from the following two-line orbital elements,

1 25064U 97074B   14303.90499863  .00039811  00000-0  59388-3 0  2938
2 25064 034.9607 097.5219 0003285 292.6433 201.1935 15.53999708942257
Epoch (UTC): 30 October 2014 21:43:11
Eccentricity: 0.0003285
inclination: 34.9607°
perigee height: 403 km
apogee height: 407 km
right ascension of ascending node: 97.5219°
argument of perigee: 292.6433°
revolutions per day: 15.53999708
mean anomaly at epoch: 201.1935°
orbit number at epoch: 94225

The dashed part of the orbit path shows where the satellite is in the earth's shadow,  

DLR